Change the Weather History Date:

Sunday, August 11, 2013

  Actual Average Record
Temperature  
Mean Temperature 83 °F 84 °F  
Max Temperature 89 °F 89 °F 92 °F (1995)
Min Temperature 77 °F 78 °F 71 °F (1923)
Degree Days  
Heating Degree Days 0 0  
Month to date heating degree days 0 0  
Since 1 June heating degree days 0 0  
Since 1 July heating degree days 0 0  
Cooling Degree Days 18 19  
Month to date cooling degree days 207 209  
Year to date cooling degree days 3530 3493  
Since 1 June cooling degree days 1282 1328  
Growing Degree Days 33 (Base 50)    
Moisture  
Dew Point 73 °F    
Average Humidity 74    
Maximum Humidity 85    
Minimum Humidity 63    
Precipitation  
Precipitation 0.34 in 0.17 in 2.12 in (1973)
Month to date precipitation 3.89 1.67  
Year to date precipitation 53.89 29.83  
Sea Level Pressure  
Sea Level Pressure 29.99 in    
Wind  
Wind Speed 7 mph (East)    
Max Wind Speed 26 mph    
Max Gust Speed 35 mph    
Visibility 9 miles    
Events Rain , Thunderstorm    
T = Trace of Precipitation, MM = Missing Value Source: NWS Daily Summary

Daily Weather History Graph

Daily Weather History Graph

Search for Another Location

Airport or City:

Trip Planner

Search our weather history database for the weather conditions in past years. The results will help you decide how hot, cold, wet, or windy it might be!

Date:

Astronomy

Aug. 11, 2013 Rise Set
Actual Time 6:04 AM AST 6:53 PM AST
Civil Twilight 5:42 AM AST 7:16 PM AST
Nautical Twilight 5:15 AM AST 7:42 PM AST
Astronomical Twilight 4:47 AM AST 8:10 PM AST
Moon 9:59 AM AST (8/11) 9:59 PM AST (8/11)
Length of Visible Light 13h 34m
Length of Day
12h 48m
Waxing Crescent, 22% of the Moon is Illuminated
Aug 11
Waxing Crescent
Aug 14
First Quarter
Aug 20
Full
Aug 28
Last Quarter
Sep 5
New

Hourly Weather History & Observations

Time (AST) Temp. Heat Index Dew Point Humidity Pressure Visibility Wind Dir Wind Speed Gust Speed Precip Events Conditions
12:56 AM 81.0 °F 86.2 °F 73.9 °F 79% 30.00 in 10.0 mi Calm Calm - N/A   Partly Cloudy
1:56 AM 81.0 °F 85.8 °F 73.0 °F 77% 29.98 in 10.0 mi ESE 3.5 mph - N/A   Partly Cloudy
2:56 AM 80.1 °F 84.2 °F 73.0 °F 79% 29.97 in 10.0 mi East 3.5 mph - N/A   Partly Cloudy
3:56 AM 80.1 °F 84.5 °F 73.9 °F 81% 29.96 in 10.0 mi Calm Calm - N/A   Partly Cloudy
4:56 AM 79.0 °F - 73.0 °F 82% 29.96 in 10.0 mi Calm Calm - N/A   Partly Cloudy
5:56 AM 79.0 °F - 73.0 °F 82% 29.96 in 10.0 mi Calm Calm - N/A   Partly Cloudy
6:56 AM 79.0 °F - 73.9 °F 84% 29.98 in 10.0 mi Calm Calm - N/A   Partly Cloudy
7:56 AM 81.0 °F 85.8 °F 73.0 °F 77% 29.99 in 10.0 mi Calm Calm - N/A   Scattered Clouds
8:56 AM 84.9 °F 93.3 °F 75.0 °F 72% 30.01 in 10.0 mi East 11.5 mph 16.1 mph N/A   Scattered Clouds
9:56 AM 84.9 °F 92.1 °F 73.9 °F 69% 30.01 in 9.0 mi ENE 15.0 mph 20.7 mph N/A   Scattered Clouds
10:56 AM 87.1 °F 94.5 °F 73.0 °F 63% 30.01 in 9.0 mi East 17.3 mph - N/A   Scattered Clouds
11:56 AM 88.0 °F 95.6 °F 73.0 °F 61% 30.01 in 9.0 mi ENE 17.3 mph 23.0 mph N/A   Scattered Clouds
12:56 PM 88.0 °F 96.5 °F 73.9 °F 63% 29.99 in 9.0 mi ENE 19.6 mph - N/A   Scattered Clouds
1:56 PM 82.9 °F 88.0 °F 72.0 °F 69% 29.98 in 9.0 mi ESE 6.9 mph - 0.00 in   Scattered Clouds
2:56 PM 84.0 °F 90.2 °F 73.0 °F 69% 29.96 in 9.0 mi East 15.0 mph - N/A   Scattered Clouds
3:56 PM 87.1 °F 96.3 °F 75.0 °F 67% 29.96 in 9.0 mi ENE 17.3 mph 21.9 mph N/A   Scattered Clouds
4:56 PM 84.0 °F 89.6 °F 72.0 °F 67% 29.95 in 9.0 mi ESE 11.5 mph - N/A   Scattered Clouds
5:56 PM 82.9 °F 88.0 °F 72.0 °F 69% 29.97 in 9.0 mi East 8.1 mph - N/A   Scattered Clouds
6:56 PM 82.0 °F 87.4 °F 73.0 °F 74% 29.97 in 9.0 mi ESE 4.6 mph - N/A   Scattered Clouds
7:56 PM 82.0 °F 87.4 °F 73.0 °F 74% 29.99 in 10.0 mi ESE 4.6 mph - N/A   Scattered Clouds
8:56 PM 82.0 °F 86.7 °F 72.0 °F 71% 30.02 in 10.0 mi Calm Calm - N/A   Partly Cloudy
9:56 PM 81.0 °F 85.2 °F 72.0 °F 74% 30.03 in 10.0 mi Calm Calm - N/A   Clear
10:56 PM 81.0 °F 84.9 °F 71.1 °F 72% 30.02 in 10.0 mi Calm Calm - N/A   Partly Cloudy
11:24 PM 80.6 °F 84.6 °F 71.6 °F 74% 30.04 in 10.0 mi Calm Calm - N/A Thunderstorm Thunderstorm
11:33 PM 80.6 °F 84.6 °F 71.6 °F 74% 30.05 in 2.0 mi East 17.3 mph 20.7 mph 0.00 in Rain , Thunderstorm Thunderstorms and Rain
11:41 PM 77.0 °F - 71.6 °F 83% 30.03 in 4.0 mi ESE 12.7 mph 20.7 mph 0.29 in Rain , Thunderstorm Thunderstorms and Rain
11:56 PM 77.0 °F - 72.0 °F 84% 30.04 in 10.0 mi South 6.9 mph - 0.34 in Rain , Thunderstorm Light Thunderstorms and Rain